Data supplied by UK-AIR on 2/4/2010
All Data GMT hour ending  NB:  Upto 28/01/2009 PM10 were measured with a Partisol (quartz), from 29/01/2009 PM10 were measured with a Partisol (emfab)
Status: R =Ratified P=Provisional,P*=As supplied
,,Brighton Preston Park,,,,,,,,,,,,,,,,,,,,,,,
Date,time,"Nitric oxide",status,unit,"Nitrogen dioxide",status,unit,"Nitrogen oxides as nitrogen dioxide",status,unit,"Ozone",status,unit,"Daily measured PM2.5 (uncorrected)",status,unit
 
01-01-2009,01:00,,,,,,,,,,,,,,,
01-01-2009,02:00,1,R,ugm-3,13,R,ugm-3,15,R,ugm-3,30,R,ugm-3,,,
01-01-2009,03:00,1,R,ugm-3,11,R,ugm-3,13,R,ugm-3,30,R,ugm-3,,,
01-01-2009,04:00,1,R,ugm-3,11,R,ugm-3,13,R,ugm-3,34,R,ugm-3,,,
01-01-2009,05:00,1,R,ugm-3,13,R,ugm-3,15,R,ugm-3,30,R,ugm-3,,,
01-01-2009,06:00,1,R,ugm-3,21,R,ugm-3,23,R,ugm-3,26,R,ugm-3,,,
01-01-2009,07:00,1,R,ugm-3,15,R,ugm-3,17,R,ugm-3,36,R,ugm-3,,,
01-01-2009,08:00,1,R,ugm-3,17,R,ugm-3,19,R,ugm-3,34,R,ugm-3,,,
01-01-2009,09:00,1,R,ugm-3,13,R,ugm-3,15,R,ugm-3,38,R,ugm-3,,,
01-01-2009,10:00,3,R,ugm-3,10,R,ugm-3,13,R,ugm-3,42,R,ugm-3,,,
01-01-2009,11:00,3,R,ugm-3,11,R,ugm-3,15,R,ugm-3,40,R,ugm-3,,,
01-01-2009,12:00,3,R,ugm-3,13,R,ugm-3,17,R,ugm-3,40,R,ugm-3,,,
01-01-2009,13:00,3,R,ugm-3,11,R,ugm-3,15,R,ugm-3,42,R,ugm-3,,,
01-01-2009,14:00,3,R,ugm-3,11,R,ugm-3,15,R,ugm-3,40,R,ugm-3,,,
01-01-2009,15:00,3,R,ugm-3,15,R,ugm-3,19,R,ugm-3,38,R,ugm-3,,,
01-01-2009,16:00,3,R,ugm-3,17,R,ugm-3,21,R,ugm-3,32,R,ugm-3,,,
01-01-2009,17:00,1,R,ugm-3,21,R,ugm-3,23,R,ugm-3,30,R,ugm-3,,,
01-01-2009,18:00,3,R,ugm-3,21,R,ugm-3,25,R,ugm-3,30,R,ugm-3,,,
01-01-2009,19:00,3,R,ugm-3,21,R,ugm-3,25,R,ugm-3,28,R,ugm-3,,,
01-01-2009,20:00,1,R,ugm-3,21,R,ugm-3,23,R,ugm-3,26,R,ugm-3,,,
01-01-2009,21:00,1,R,ugm-3,21,R,ugm-3,23,R,ugm-3,28,R,ugm-3,,,
01-01-2009,22:00,1,R,ugm-3,19,R,ugm-3,21,R,ugm-3,28,R,ugm-3,,,
01-01-2009,23:00,1,R,ugm-3,23,R,ugm-3,25,R,ugm-3,26,R,ugm-3,,,
01-01-2009,24:00,1,R,ugm-3,17,R,ugm-3,19,R,ugm-3,28,R,ugm-3,,,
02-01-2009,01:00,1,R,ugm-3,23,R,ugm-3,25,R,ugm-3,22,R,ugm-3,,,
02-01-2009,02:00,1,R,ugm-3,19,R,ugm-3,21,R,ugm-3,22,R,ugm-3,,,
02-01-2009,03:00,1,R,ugm-3,21,R,ugm-3,23,R,ugm-3,20,R,ugm-3,,,
02-01-2009,04:00,1,R,ugm-3,19,R,ugm-3,21,R,ugm-3,20,R,ugm-3,,,
02-01-2009,05:00,1,R,ugm-3,21,R,ugm-3,23,R,ugm-3,20,R,ugm-3,,,
02-01-2009,06:00,3,R,ugm-3,25,R,ugm-3,29,R,ugm-3,12,R,ugm-3,,,
02-01-2009,07:00,3,R,ugm-3,29,R,ugm-3,32,R,ugm-3,12,R,ugm-3,,,
02-01-2009,08:00,3,R,ugm-3,32,R,ugm-3,36,R,ugm-3,12,R,ugm-3,,,
02-01-2009,09:00,11,R,ugm-3,38,R,ugm-3,55,R,ugm-3,8,R,ugm-3,,,
02-01-2009,10:00,9,R,ugm-3,36,R,ugm-3,50,R,ugm-3,12,R,ugm-3,,,
02-01-2009,11:00,6,R,ugm-3,27,R,ugm-3,36,R,ugm-3,22,R,ugm-3,,,
02-01-2009,12:00,5,R,ugm-3,25,R,ugm-3,32,R,ugm-3,26,R,ugm-3,,,
02-01-2009,13:00,6,R,ugm-3,23,R,ugm-3,32,R,ugm-3,32,R,ugm-3,,,
02-01-2009,14:00,4,R,ugm-3,19,R,ugm-3,25,R,ugm-3,44,R,ugm-3,,,
02-01-2009,15:00,4,R,ugm-3,21,R,ugm-3,27,R,ugm-3,48,R,ugm-3,,,
02-01-2009,16:00,3,R,ugm-3,23,R,ugm-3,27,R,ugm-3,46,R,ugm-3,,,
02-01-2009,17:00,1,R,ugm-3,21,R,ugm-3,23,R,ugm-3,48,R,ugm-3,,,
02-01-2009,18:00,1,R,ugm-3,27,R,ugm-3,29,R,ugm-3,40,R,ugm-3,,,
02-01-2009,19:00,3,R,ugm-3,31,R,ugm-3,34,R,ugm-3,36,R,ugm-3,,,
02-01-2009,20:00,1,R,ugm-3,13,R,ugm-3,15,R,ugm-3,56,R,ugm-3,,,
02-01-2009,21:00,1,R,ugm-3,13,R,ugm-3,15,R,ugm-3,52,R,ugm-3,,,
02-01-2009,22:00,1,R,ugm-3,13,R,ugm-3,15,R,ugm-3,48,R,ugm-3,,,
02-01-2009,23:00,1,R,ugm-3,17,R,ugm-3,19,R,ugm-3,42,R,ugm-3,,,
02-01-2009,24:00,1,R,ugm-3,15,R,ugm-3,17,R,ugm-3,40,R,ugm-3,,,
03-01-2009,01:00,1,R,ugm-3,13,R,ugm-3,15,R,ugm-3,38,R,ugm-3,,,
03-01-2009,02:00,1,R,ugm-3,10,R,ugm-3,11,R,ugm-3,40,R,ugm-3,,,
03-01-2009,03:00,1,R,ugm-3,11,R,ugm-3,13,R,ugm-3,34,R,ugm-3,,,
03-01-2009,04:00,1,R,ugm-3,13,R,ugm-3,15,R,ugm-3,30,R,ugm-3,,,
03-01-2009,05:00,1,R,ugm-3,13,R,ugm-3,15,R,ugm-3,28,R,ugm-3,,,
03-01-2009,06:00,1,R,ugm-3,13,R,ugm-3,15,R,ugm-3,30,R,ugm-3,,,
03-01-2009,07:00,1,R,ugm-3,21,R,ugm-3,23,R,ugm-3,20,R,ugm-3,,,
03-01-2009,08:00,3,R,ugm-3,31,R,ugm-3,34,R,ugm-3,12,R,ugm-3,,,
03-01-2009,09:00,5,R,ugm-3,31,R,ugm-3,38,R,ugm-3,14,R,ugm-3,,,
03-01-2009,10:00,9,R,ugm-3,27,R,ugm-3,40,R,ugm-3,18,R,ugm-3,,,
03-01-2009,11:00,8,R,ugm-3,19,R,ugm-3,31,R,ugm-3,28,R,ugm-3,,,
03-01-2009,12:00,8,R,ugm-3,21,R,ugm-3,32,R,ugm-3,32,R,ugm-3,,,
03-01-2009,13:00,6,R,ugm-3,19,R,ugm-3,29,R,ugm-3,38,R,ugm-3,,,
03-01-2009,14:00,4,R,ugm-3,17,R,ugm-3,23,R,ugm-3,46,R,ugm-3,,,
03-01-2009,15:00,3,R,ugm-3,19,R,ugm-3,23,R,ugm-3,46,R,ugm-3,,,
03-01-2009,16:00,3,R,ugm-3,27,R,ugm-3,31,R,ugm-3,38,R,ugm-3,,,
03-01-2009,17:00,19,R,ugm-3,57,R,ugm-3,86,R,ugm-3,12,R,ugm-3,,,
03-01-2009,18:00,64,R,ugm-3,76,R,ugm-3,174,R,ugm-3,8,R,ugm-3,,,
03-01-2009,19:00,79,R,ugm-3,78,R,ugm-3,199,R,ugm-3,8,R,ugm-3,,,
03-01-2009,20:00,63,R,ugm-3,73,R,ugm-3,168,R,ugm-3,4,R,ugm-3,,,
03-01-2009,21:00,49,R,ugm-3,71,R,ugm-3,145,R,ugm-3,4,R,ugm-3,,,
03-01-2009,22:00,15,R,ugm-3,61,R,ugm-3,84,R,ugm-3,6,R,ugm-3,,,
03-01-2009,23:00,10,R,ugm-3,59,R,ugm-3,74,R,ugm-3,6,R,ugm-3,,,
03-01-2009,24:00,4,R,ugm-3,48,R,ugm-3,53,R,ugm-3,12,R,ugm-3,,,
04-01-2009,01:00,8,R,ugm-3,57,R,ugm-3,69,R,ugm-3,6,R,ugm-3,,,
04-01-2009,02:00,14,R,ugm-3,57,R,ugm-3,78,R,ugm-3,4,R,ugm-3,,,
04-01-2009,03:00,18,R,ugm-3,63,R,ugm-3,90,R,ugm-3,4,R,ugm-3,,,
04-01-2009,04:00,15,R,ugm-3,63,R,ugm-3,86,R,ugm-3,4,R,ugm-3,,,
04-01-2009,05:00,15,R,ugm-3,59,R,ugm-3,82,R,ugm-3,4,R,ugm-3,,,
04-01-2009,06:00,10,R,ugm-3,55,R,ugm-3,71,R,ugm-3,6,R,ugm-3,,,
04-01-2009,07:00,20,R,ugm-3,59,R,ugm-3,90,R,ugm-3,4,R,ugm-3,,,
04-01-2009,08:00,38,R,ugm-3,65,R,ugm-3,122,R,ugm-3,2,R,ugm-3,,,
04-01-2009,09:00,63,R,ugm-3,71,R,ugm-3,166,R,ugm-3,2,R,ugm-3,,,
04-01-2009,10:00,78,R,ugm-3,71,R,ugm-3,189,R,ugm-3,4,R,ugm-3,,,
04-01-2009,11:00,35,R,ugm-3,57,R,ugm-3,111,R,ugm-3,12,R,ugm-3,,,
04-01-2009,12:00,3,R,ugm-3,31,R,ugm-3,34,R,ugm-3,32,R,ugm-3,,,
04-01-2009,13:00,1,R,ugm-3,25,R,ugm-3,27,R,ugm-3,36,R,ugm-3,,,
04-01-2009,14:00,4,R,ugm-3,34,R,ugm-3,40,R,ugm-3,26,R,ugm-3,,,
04-01-2009,15:00,5,R,ugm-3,36,R,ugm-3,44,R,ugm-3,24,R,ugm-3,,,
04-01-2009,16:00,1,R,ugm-3,27,R,ugm-3,29,R,ugm-3,34,R,ugm-3,,,
04-01-2009,17:00,1,R,ugm-3,29,R,ugm-3,31,R,ugm-3,26,R,ugm-3,,,
04-01-2009,18:00,1,R,ugm-3,34,R,ugm-3,36,R,ugm-3,20,R,ugm-3,,,
04-01-2009,19:00,1,R,ugm-3,32,R,ugm-3,34,R,ugm-3,26,R,ugm-3,,,
04-01-2009,20:00,0,R,ugm-3,25,R,ugm-3,25,R,ugm-3,34,R,ugm-3,,,
04-01-2009,21:00,0,R,ugm-3,25,R,ugm-3,25,R,ugm-3,28,R,ugm-3,,,
04-01-2009,22:00,1,R,ugm-3,25,R,ugm-3,27,R,ugm-3,34,R,ugm-3,,,
04-01-2009,23:00,1,R,ugm-3,23,R,ugm-3,25,R,ugm-3,34,R,ugm-3,,,
04-01-2009,24:00,0,R,ugm-3,17,R,ugm-3,17,R,ugm-3,40,R,ugm-3,,,
05-01-2009,01:00,3,R,ugm-3,21,R,ugm-3,25,R,ugm-3,26,R,ugm-3,,,
05-01-2009,02:00,1,R,ugm-3,19,R,ugm-3,21,R,ugm-3,28,R,ugm-3,,,
05-01-2009,03:00,1,R,ugm-3,17,R,ugm-3,19,R,ugm-3,28,R,ugm-3,,,
05-01-2009,04:00,3,R,ugm-3,19,R,ugm-3,23,R,ugm-3,20,R,ugm-3,,,
05-01-2009,05:00,1,R,ugm-3,19,R,ugm-3,21,R,ugm-3,20,R,ugm-3,,,
05-01-2009,06:00,1,R,ugm-3,21,R,ugm-3,23,R,ugm-3,16,R,ugm-3,,,
05-01-2009,07:00,3,R,ugm-3,29,R,ugm-3,32,R,ugm-3,14,R,ugm-3,,,
05-01-2009,08:00,5,R,ugm-3,36,R,ugm-3,44,R,ugm-3,10,R,ugm-3,,,
05-01-2009,09:00,8,R,ugm-3,46,R,ugm-3,57,R,ugm-3,10,R,ugm-3,,,
05-01-2009,10:00,4,R,ugm-3,32,R,ugm-3,38,R,ugm-3,30,R,ugm-3,,,
05-01-2009,11:00,3,R,ugm-3,23,R,ugm-3,27,R,ugm-3,38,R,ugm-3,,,
05-01-2009,12:00,3,R,ugm-3,11,R,ugm-3,15,R,ugm-3,52,R,ugm-3,,,
05-01-2009,13:00,3,R,ugm-3,4,R,ugm-3,8,R,ugm-3,58,R,ugm-3,,,
05-01-2009,14:00,3,R,ugm-3,6,R,ugm-3,10,R,ugm-3,62,R,ugm-3,,,
05-01-2009,15:00,3,R,ugm-3,6,R,ugm-3,10,R,ugm-3,64,R,ugm-3,,,
05-01-2009,16:00,3,R,ugm-3,8,R,ugm-3,11,R,ugm-3,62,R,ugm-3,,,
05-01-2009,17:00,1,R,ugm-3,11,R,ugm-3,13,R,ugm-3,56,R,ugm-3,,,
05-01-2009,18:00,1,R,ugm-3,13,R,ugm-3,15,R,ugm-3,56,R,ugm-3,,,
05-01-2009,19:00,1,R,ugm-3,15,R,ugm-3,17,R,ugm-3,56,R,ugm-3,,,
05-01-2009,20:00,1,R,ugm-3,10,R,ugm-3,11,R,ugm-3,62,R,ugm-3,,,
05-01-2009,21:00,1,R,ugm-3,8,R,ugm-3,10,R,ugm-3,62,R,ugm-3,,,
05-01-2009,22:00,1,R,ugm-3,13,R,ugm-3,15,R,ugm-3,54,R,ugm-3,,,
05-01-2009,23:00,1,R,ugm-3,11,R,ugm-3,13,R,ugm-3,52,R,ugm-3,,,
05-01-2009,24:00,1,R,ugm-3,10,R,ugm-3,11,R,ugm-3,50,R,ugm-3,,,
06-01-2009,01:00,1,R,ugm-3,10,R,ugm-3,11,R,ugm-3,48,R,ugm-3,,,
06-01-2009,02:00,1,R,ugm-3,6,R,ugm-3,8,R,ugm-3,50,R,ugm-3,,,
06-01-2009,03:00,1,R,ugm-3,6,R,ugm-3,8,R,ugm-3,52,R,ugm-3,,,
06-01-2009,04:00,1,R,ugm-3,6,R,ugm-3,8,R,ugm-3,52,R,ugm-3,,,
06-01-2009,05:00,1,R,ugm-3,6,R,ugm-3,8,R,ugm-3,54,R,ugm-3,,,
06-01-2009,06:00,1,R,ugm-3,11,R,ugm-3,13,R,ugm-3,48,R,ugm-3,,,
06-01-2009,07:00,3,R,ugm-3,29,R,ugm-3,32,R,ugm-3,28,R,ugm-3,,,
06-01-2009,08:00,5,R,ugm-3,46,R,ugm-3,53,R,ugm-3,12,R,ugm-3,,,
06-01-2009,09:00,9,R,ugm-3,44,R,ugm-3,57,R,ugm-3,16,R,ugm-3,,,
06-01-2009,10:00,11,R,ugm-3,36,R,ugm-3,53,R,ugm-3,22,R,ugm-3,,,
06-01-2009,11:00,10,R,ugm-3,27,R,ugm-3,42,R,ugm-3,34,R,ugm-3,,,
06-01-2009,12:00,6,R,ugm-3,21,R,ugm-3,31,R,ugm-3,42,R,ugm-3,,,
06-01-2009,13:00,4,R,ugm-3,13,R,ugm-3,19,R,ugm-3,52,R,ugm-3,,,
06-01-2009,14:00,3,R,ugm-3,13,R,ugm-3,17,R,ugm-3,54,R,ugm-3,,,
06-01-2009,15:00,3,R,ugm-3,11,R,ugm-3,15,R,ugm-3,54,R,ugm-3,,,
06-01-2009,16:00,3,R,ugm-3,19,R,ugm-3,23,R,ugm-3,46,R,ugm-3,,,
06-01-2009,17:00,9,R,ugm-3,46,R,ugm-3,59,R,ugm-3,24,R,ugm-3,,,
06-01-2009,18:00,56,R,ugm-3,84,R,ugm-3,170,R,ugm-3,6,R,ugm-3,,,
06-01-2009,19:00,70,R,ugm-3,86,R,ugm-3,193,R,ugm-3,6,R,ugm-3,,,
06-01-2009,20:00,83,R,ugm-3,86,R,ugm-3,212,R,ugm-3,6,R,ugm-3,,,
06-01-2009,21:00,59,R,ugm-3,76,R,ugm-3,166,R,ugm-3,4,R,ugm-3,,,
06-01-2009,22:00,44,R,ugm-3,73,R,ugm-3,139,R,ugm-3,4,R,ugm-3,,,
06-01-2009,23:00,49,R,ugm-3,74,R,ugm-3,149,R,ugm-3,4,R,ugm-3,,,
06-01-2009,24:00,58,R,ugm-3,74,R,ugm-3,162,R,ugm-3,4,R,ugm-3,,,
07-01-2009,01:00,65,R,ugm-3,73,R,ugm-3,172,R,ugm-3,4,R,ugm-3,,,
07-01-2009,02:00,51,R,ugm-3,67,R,ugm-3,145,R,ugm-3,4,R,ugm-3,,,
07-01-2009,03:00,44,R,ugm-3,65,R,ugm-3,132,R,ugm-3,2,R,ugm-3,,,
07-01-2009,04:00,29,R,ugm-3,63,R,ugm-3,107,R,ugm-3,4,R,ugm-3,,,
07-01-2009,05:00,23,R,ugm-3,59,R,ugm-3,94,R,ugm-3,2,R,ugm-3,,,
07-01-2009,06:00,34,R,ugm-3,57,R,ugm-3,109,R,ugm-3,2,R,ugm-3,,,
07-01-2009,07:00,20,R,ugm-3,53,R,ugm-3,84,R,ugm-3,8,R,ugm-3,,,
07-01-2009,08:00,5,R,ugm-3,44,R,ugm-3,52,R,ugm-3,14,R,ugm-3,,,
07-01-2009,09:00,10,R,ugm-3,48,R,ugm-3,63,R,ugm-3,8,R,ugm-3,,,
07-01-2009,10:00,16,R,ugm-3,44,R,ugm-3,69,R,ugm-3,12,R,ugm-3,,,
07-01-2009,11:00,16,R,ugm-3,38,R,ugm-3,63,R,ugm-3,14,R,ugm-3,,,
07-01-2009,12:00,18,R,ugm-3,38,R,ugm-3,65,R,ugm-3,16,R,ugm-3,,,
07-01-2009,13:00,19,R,ugm-3,38,R,ugm-3,67,R,ugm-3,16,R,ugm-3,,,
07-01-2009,14:00,21,R,ugm-3,38,R,ugm-3,71,R,ugm-3,14,R,ugm-3,,,
07-01-2009,15:00,24,R,ugm-3,46,R,ugm-3,82,R,ugm-3,10,R,ugm-3,,,
07-01-2009,16:00,24,R,ugm-3,52,R,ugm-3,88,R,ugm-3,6,R,ugm-3,,,
07-01-2009,17:00,38,R,ugm-3,59,R,ugm-3,117,R,ugm-3,2,R,ugm-3,,,
07-01-2009,18:00,35,R,ugm-3,59,R,ugm-3,113,R,ugm-3,2,R,ugm-3,,,
07-01-2009,19:00,30,R,ugm-3,55,R,ugm-3,101,R,ugm-3,2,R,ugm-3,,,
07-01-2009,20:00,30,R,ugm-3,53,R,ugm-3,99,R,ugm-3,2,R,ugm-3,,,
07-01-2009,21:00,24,R,ugm-3,53,R,ugm-3,90,R,ugm-3,2,R,ugm-3,,,
07-01-2009,22:00,25,R,ugm-3,53,R,ugm-3,92,R,ugm-3,2,R,ugm-3,,,
07-01-2009,23:00,28,R,ugm-3,52,R,ugm-3,94,R,ugm-3,2,R,ugm-3,,,
07-01-2009,24:00,28,R,ugm-3,52,R,ugm-3,94,R,ugm-3,4,R,ugm-3,,,
08-01-2009,01:00,30,R,ugm-3,52,R,ugm-3,97,R,ugm-3,2,R,ugm-3,,,
08-01-2009,02:00,35,R,ugm-3,53,R,ugm-3,107,R,ugm-3,2,R,ugm-3,,,
08-01-2009,03:00,31,R,ugm-3,50,R,ugm-3,97,R,ugm-3,2,R,ugm-3,,,
08-01-2009,04:00,31,R,ugm-3,50,R,ugm-3,97,R,ugm-3,2,R,ugm-3,,,
08-01-2009,05:00,35,R,ugm-3,52,R,ugm-3,105,R,ugm-3,2,R,ugm-3,,,
08-01-2009,06:00,44,R,ugm-3,53,R,ugm-3,120,R,ugm-3,2,R,ugm-3,,,
08-01-2009,07:00,48,R,ugm-3,55,R,ugm-3,128,R,ugm-3,2,R,ugm-3,,,
08-01-2009,08:00,70,R,ugm-3,65,R,ugm-3,172,R,ugm-3,2,R,ugm-3,,,
08-01-2009,09:00,114,R,ugm-3,76,R,ugm-3,250,R,ugm-3,2,R,ugm-3,,,
08-01-2009,10:00,128,R,ugm-3,82,R,ugm-3,277,R,ugm-3,4,R,ugm-3,,,
08-01-2009,11:00,53,R,ugm-3,57,R,ugm-3,138,R,ugm-3,12,R,ugm-3,,,
08-01-2009,12:00,21,R,ugm-3,40,R,ugm-3,73,R,ugm-3,26,R,ugm-3,,,
08-01-2009,13:00,6,R,ugm-3,23,R,ugm-3,32,R,ugm-3,46,R,ugm-3,,,
08-01-2009,14:00,4,R,ugm-3,25,R,ugm-3,31,R,ugm-3,42,R,ugm-3,,,
08-01-2009,15:00,13,R,ugm-3,44,R,ugm-3,63,R,ugm-3,14,R,ugm-3,,,
08-01-2009,16:00,4,R,ugm-3,40,R,ugm-3,46,R,ugm-3,24,R,ugm-3,,,
08-01-2009,17:00,5,R,ugm-3,50,R,ugm-3,57,R,ugm-3,14,R,ugm-3,,,
08-01-2009,18:00,5,R,ugm-3,55,R,ugm-3,63,R,ugm-3,16,R,ugm-3,,,
08-01-2009,19:00,63,R,ugm-3,82,R,ugm-3,178,R,ugm-3,8,R,ugm-3,,,
08-01-2009,20:00,141,R,ugm-3,90,R,ugm-3,306,R,ugm-3,6,R,ugm-3,,,
08-01-2009,21:00,124,R,ugm-3,84,R,ugm-3,273,R,ugm-3,6,R,ugm-3,,,
08-01-2009,22:00,43,R,ugm-3,57,R,ugm-3,122,R,ugm-3,8,R,ugm-3,,,
08-01-2009,23:00,11,R,ugm-3,46,R,ugm-3,63,R,ugm-3,10,R,ugm-3,,,
08-01-2009,24:00,16,R,ugm-3,50,R,ugm-3,74,R,ugm-3,6,R,ugm-3,,,
09-01-2009,01:00,8,R,ugm-3,44,R,ugm-3,55,R,ugm-3,8,R,ugm-3,,,
09-01-2009,02:00,3,R,ugm-3,32,R,ugm-3,36,R,ugm-3,18,R,ugm-3,,,
09-01-2009,03:00,1,R,ugm-3,36,R,ugm-3,38,R,ugm-3,16,R,ugm-3,,,
09-01-2009,04:00,1,R,ugm-3,36,R,ugm-3,38,R,ugm-3,16,R,ugm-3,,,
09-01-2009,05:00,4,R,ugm-3,46,R,ugm-3,52,R,ugm-3,6,R,ugm-3,,,
09-01-2009,06:00,19,R,ugm-3,53,R,ugm-3,82,R,ugm-3,6,R,ugm-3,,,
09-01-2009,07:00,64,R,ugm-3,65,R,ugm-3,162,R,ugm-3,0,R,ugm-3,,,
09-01-2009,08:00,130,R,ugm-3,82,R,ugm-3,281,R,ugm-3,0,R,ugm-3,,,
09-01-2009,09:00,140,R,ugm-3,82,R,ugm-3,296,R,ugm-3,2,R,ugm-3,,,
09-01-2009,10:00,33,R,ugm-3,50,R,ugm-3,99,R,ugm-3,10,R,ugm-3,,,
09-01-2009,11:00,25,R,ugm-3,44,R,ugm-3,82,R,ugm-3,14,R,ugm-3,,,
09-01-2009,12:00,24,R,ugm-3,42,R,ugm-3,78,R,ugm-3,18,R,ugm-3,,,
09-01-2009,13:00,16,R,ugm-3,34,R,ugm-3,59,R,ugm-3,24,R,ugm-3,,,
09-01-2009,14:00,14,R,ugm-3,36,R,ugm-3,57,R,ugm-3,22,R,ugm-3,,,
09-01-2009,15:00,14,R,ugm-3,42,R,ugm-3,63,R,ugm-3,16,R,ugm-3,,,
09-01-2009,16:00,11,R,ugm-3,48,R,ugm-3,65,R,ugm-3,12,R,ugm-3,,,
09-01-2009,17:00,34,R,ugm-3,67,R,ugm-3,118,R,ugm-3,2,R,ugm-3,,,
09-01-2009,18:00,156,R,ugm-3,94,R,ugm-3,332,R,ugm-3,2,R,ugm-3,,,
09-01-2009,19:00,153,R,ugm-3,94,R,ugm-3,327,R,ugm-3,2,R,ugm-3,,,
09-01-2009,20:00,144,R,ugm-3,92,R,ugm-3,311,R,ugm-3,2,R,ugm-3,,,
09-01-2009,21:00,78,R,ugm-3,73,R,ugm-3,191,R,ugm-3,2,R,ugm-3,,,
09-01-2009,22:00,84,R,ugm-3,71,R,ugm-3,199,R,ugm-3,4,R,ugm-3,,,
09-01-2009,23:00,80,R,ugm-3,73,R,ugm-3,195,R,ugm-3,2,R,ugm-3,,,
09-01-2009,24:00,69,R,ugm-3,65,R,ugm-3,170,R,ugm-3,0,R,ugm-3,,,
10-01-2009,01:00,68,R,ugm-3,65,R,ugm-3,168,R,ugm-3,2,R,ugm-3,,,
10-01-2009,02:00,56,R,ugm-3,59,R,ugm-3,145,R,ugm-3,2,R,ugm-3,,,
10-01-2009,03:00,43,R,ugm-3,55,R,ugm-3,120,R,ugm-3,2,R,ugm-3,,,
10-01-2009,04:00,35,R,ugm-3,52,R,ugm-3,105,R,ugm-3,2,R,ugm-3,,,
10-01-2009,05:00,33,R,ugm-3,52,R,ugm-3,101,R,ugm-3,2,R,ugm-3,,,
10-01-2009,06:00,39,R,ugm-3,53,R,ugm-3,113,R,ugm-3,2,R,ugm-3,,,
10-01-2009,07:00,61,R,ugm-3,57,R,ugm-3,151,R,ugm-3,2,R,ugm-3,,,
10-01-2009,08:00,89,R,ugm-3,61,R,ugm-3,197,R,ugm-3,0,R,ugm-3,,,
10-01-2009,09:00,48,R,ugm-3,52,R,ugm-3,124,R,ugm-3,2,R,ugm-3,,,
10-01-2009,10:00,63,R,ugm-3,52,R,ugm-3,147,R,ugm-3,4,R,ugm-3,,,
10-01-2009,11:00,93,R,ugm-3,61,R,ugm-3,202,R,ugm-3,4,R,ugm-3,,,
10-01-2009,12:00,,,,,,,,,,8,R,ugm-3,,,
10-01-2009,13:00,11,R,ugm-3,34,R,ugm-3,52,R,ugm-3,20,R,ugm-3,,,
10-01-2009,14:00,11,R,ugm-3,36,R,ugm-3,53,R,ugm-3,20,R,ugm-3,,,
10-01-2009,15:00,14,R,ugm-3,44,R,ugm-3,65,R,ugm-3,14,R,ugm-3,,,
10-01-2009,16:00,24,R,ugm-3,53,R,ugm-3,90,R,ugm-3,8,R,ugm-3,,,
10-01-2009,17:00,79,R,ugm-3,76,R,ugm-3,197,R,ugm-3,2,R,ugm-3,,,
10-01-2009,18:00,71,R,ugm-3,76,R,ugm-3,185,R,ugm-3,2,R,ugm-3,,,
10-01-2009,19:00,181,R,ugm-3,101,R,ugm-3,378,R,ugm-3,6,R,ugm-3,,,
10-01-2009,20:00,235,R,ugm-3,113,R,ugm-3,472,R,ugm-3,6,R,ugm-3,,,
10-01-2009,21:00,210,R,ugm-3,105,R,ugm-3,426,R,ugm-3,4,R,ugm-3,,,
10-01-2009,22:00,10,R,ugm-3,38,R,ugm-3,53,R,ugm-3,14,R,ugm-3,,,
10-01-2009,23:00,0,R,ugm-3,23,R,ugm-3,23,R,ugm-3,30,R,ugm-3,,,
10-01-2009,24:00,0,R,ugm-3,21,R,ugm-3,21,R,ugm-3,32,R,ugm-3,,,
11-01-2009,01:00,1,R,ugm-3,23,R,ugm-3,25,R,ugm-3,34,R,ugm-3,,,
11-01-2009,02:00,1,R,ugm-3,19,R,ugm-3,21,R,ugm-3,52,R,ugm-3,,,
11-01-2009,03:00,1,R,ugm-3,15,R,ugm-3,17,R,ugm-3,54,R,ugm-3,,,
11-01-2009,04:00,1,R,ugm-3,15,R,ugm-3,17,R,ugm-3,50,R,ugm-3,,,
11-01-2009,05:00,1,R,ugm-3,15,R,ugm-3,17,R,ugm-3,54,R,ugm-3,,,
11-01-2009,06:00,0,R,ugm-3,17,R,ugm-3,17,R,ugm-3,56,R,ugm-3,,,
11-01-2009,07:00,1,R,ugm-3,13,R,ugm-3,15,R,ugm-3,66,R,ugm-3,,,
11-01-2009,08:00,1,R,ugm-3,15,R,ugm-3,17,R,ugm-3,66,R,ugm-3,,,
11-01-2009,09:00,1,R,ugm-3,15,R,ugm-3,17,R,ugm-3,66,R,ugm-3,,,
11-01-2009,10:00,3,R,ugm-3,15,R,ugm-3,19,R,ugm-3,64,R,ugm-3,,,
11-01-2009,11:00,3,R,ugm-3,19,R,ugm-3,23,R,ugm-3,62,R,ugm-3,,,
11-01-2009,12:00,3,R,ugm-3,19,R,ugm-3,23,R,ugm-3,62,R,ugm-3,,,
11-01-2009,13:00,3,R,ugm-3,15,R,ugm-3,19,R,ugm-3,66,R,ugm-3,,,
11-01-2009,14:00,3,R,ugm-3,15,R,ugm-3,19,R,ugm-3,70,R,ugm-3,,,
11-01-2009,15:00,3,R,ugm-3,13,R,ugm-3,17,R,ugm-3,68,R,ugm-3,,,
11-01-2009,16:00,3,R,ugm-3,19,R,ugm-3,23,R,ugm-3,54,R,ugm-3,,,
11-01-2009,17:00,1,R,ugm-3,17,R,ugm-3,19,R,ugm-3,62,R,ugm-3,,,
11-01-2009,18:00,1,R,ugm-3,17,R,ugm-3,19,R,ugm-3,60,R,ugm-3,,,
11-01-2009,19:00,0,R,ugm-3,13,R,ugm-3,13,R,ugm-3,64,R,ugm-3,,,
11-01-2009,20:00,1,R,ugm-3,13,R,ugm-3,15,R,ugm-3,60,R,ugm-3,,,
11-01-2009,21:00,1,R,ugm-3,10,R,ugm-3,11,R,ugm-3,64,R,ugm-3,,,
11-01-2009,22:00,0,R,ugm-3,8,R,ugm-3,8,R,ugm-3,66,R,ugm-3,,,
11-01-2009,23:00,1,R,ugm-3,8,R,ugm-3,10,R,ugm-3,66,R,ugm-3,,,
11-01-2009,24:00,0,R,ugm-3,8,R,ugm-3,8,R,ugm-3,68,R,ugm-3,,,
12-01-2009,01:00,0,R,ugm-3,4,R,ugm-3,4,R,ugm-3,72,R,ugm-3,,,
12-01-2009,02:00,1,R,ugm-3,6,R,ugm-3,8,R,ugm-3,68,R,ugm-3,,,
12-01-2009,03:00,0,R,ugm-3,6,R,ugm-3,6,R,ugm-3,70,R,ugm-3,,,
12-01-2009,04:00,1,R,ugm-3,4,R,ugm-3,6,R,ugm-3,70,R,ugm-3,,,
12-01-2009,05:00,1,R,ugm-3,4,R,ugm-3,6,R,ugm-3,68,R,ugm-3,,,
12-01-2009,06:00,1,R,ugm-3,4,R,ugm-3,6,R,ugm-3,70,R,ugm-3,,,
12-01-2009,07:00,1,R,ugm-3,6,R,ugm-3,8,R,ugm-3,68,R,ugm-3,,,
12-01-2009,08:00,1,R,ugm-3,10,R,ugm-3,11,R,ugm-3,66,R,ugm-3,,,
12-01-2009,09:00,1,R,ugm-3,13,R,ugm-3,15,R,ugm-3,64,R,ugm-3,,,
12-01-2009,10:00,1,R,ugm-3,10,R,ugm-3,11,R,ugm-3,66,R,ugm-3,,,
12-01-2009,11:00,1,R,ugm-3,11,R,ugm-3,13,R,ugm-3,62,R,ugm-3,,,
12-01-2009,12:00,1,R,ugm-3,10,R,ugm-3,11,R,ugm-3,62,R,ugm-3,,,
12-01-2009,13:00,1,R,ugm-3,10,R,ugm-3,11,R,ugm-3,60,R,ugm-3,,,
12-01-2009,14:00,3,R,ugm-3,13,R,ugm-3,17,R,ugm-3,62,R,ugm-3,,,
12-01-2009,15:00,1,R,ugm-3,11,R,ugm-3,13,R,ugm-3,62,R,ugm-3,,,
12-01-2009,16:00,1,R,ugm-3,11,R,ugm-3,13,R,ugm-3,62,R,ugm-3,,,
12-01-2009,17:00,1,R,ugm-3,13,R,ugm-3,15,R,ugm-3,62,R,ugm-3,,,
12-01-2009,18:00,1,R,ugm-3,10,R,ugm-3,11,R,ugm-3,68,R,ugm-3,,,
12-01-2009,19:00,1,R,ugm-3,10,R,ugm-3,11,R,ugm-3,68,R,ugm-3,,,
12-01-2009,20:00,1,R,ugm-3,8,R,ugm-3,10,R,ugm-3,68,R,ugm-3,,,
12-01-2009,21:00,1,R,ugm-3,8,R,ugm-3,10,R,ugm-3,66,R,ugm-3,,,
12-01-2009,22:00,1,R,ugm-3,8,R,ugm-3,10,R,ugm-3,66,R,ugm-3,,,
12-01-2009,23:00,0,R,ugm-3,10,R,ugm-3,10,R,ugm-3,64,R,ugm-3,,,
12-01-2009,24:00,0,R,ugm-3,10,R,ugm-3,10,R,ugm-3,60,R,ugm-3,,,
13-01-2009,01:00,0,R,ugm-3,6,R,ugm-3,6,R,ugm-3,62,R,ugm-3,,,
13-01-2009,02:00,1,R,ugm-3,6,R,ugm-3,8,R,ugm-3,62,R,ugm-3,,,
13-01-2009,03:00,1,R,ugm-3,4,R,ugm-3,6,R,ugm-3,64,R,ugm-3,,,
13-01-2009,04:00,1,R,ugm-3,4,R,ugm-3,6,R,ugm-3,62,R,ugm-3,,,
13-01-2009,05:00,0,R,ugm-3,8,R,ugm-3,8,R,ugm-3,60,R,ugm-3,,,
13-01-2009,06:00,1,R,ugm-3,8,R,ugm-3,10,R,ugm-3,58,R,ugm-3,,,
13-01-2009,07:00,1,R,ugm-3,10,R,ugm-3,11,R,ugm-3,58,R,ugm-3,,,
13-01-2009,08:00,1,R,ugm-3,17,R,ugm-3,19,R,ugm-3,48,R,ugm-3,,,
13-01-2009,09:00,3,R,ugm-3,29,R,ugm-3,32,R,ugm-3,34,R,ugm-3,,,
13-01-2009,10:00,3,R,ugm-3,21,R,ugm-3,25,R,ugm-3,42,R,ugm-3,,,
13-01-2009,11:00,4,R,ugm-3,29,R,ugm-3,34,R,ugm-3,36,R,ugm-3,,,
13-01-2009,12:00,5,R,ugm-3,38,R,ugm-3,46,R,ugm-3,32,R,ugm-3,,,
13-01-2009,13:00,3,R,ugm-3,32,R,ugm-3,36,R,ugm-3,40,R,ugm-3,,,
13-01-2009,14:00,5,R,ugm-3,27,R,ugm-3,34,R,ugm-3,46,R,ugm-3,,,
13-01-2009,15:00,4,R,ugm-3,21,R,ugm-3,27,R,ugm-3,58,R,ugm-3,,,
13-01-2009,16:00,3,R,ugm-3,32,R,ugm-3,36,R,ugm-3,48,R,ugm-3,,,
13-01-2009,17:00,3,R,ugm-3,46,R,ugm-3,50,R,ugm-3,28,R,ugm-3,,,
13-01-2009,18:00,20,R,ugm-3,74,R,ugm-3,105,R,ugm-3,4,R,ugm-3,,,
13-01-2009,19:00,21,R,ugm-3,69,R,ugm-3,101,R,ugm-3,4,R,ugm-3,,,
13-01-2009,20:00,24,R,ugm-3,67,R,ugm-3,103,R,ugm-3,4,R,ugm-3,,,
13-01-2009,21:00,8,R,ugm-3,48,R,ugm-3,59,R,ugm-3,12,R,ugm-3,,,
13-01-2009,22:00,29,R,ugm-3,57,R,ugm-3,101,R,ugm-3,4,R,ugm-3,,,
13-01-2009,23:00,24,R,ugm-3,57,R,ugm-3,94,R,ugm-3,6,R,ugm-3,,,
13-01-2009,24:00,49,R,ugm-3,63,R,ugm-3,138,R,ugm-3,4,R,ugm-3,,,
14-01-2009,01:00,61,R,ugm-3,59,R,ugm-3,153,R,ugm-3,2,R,ugm-3,,,
14-01-2009,02:00,26,R,ugm-3,44,R,ugm-3,84,R,ugm-3,2,R,ugm-3,,,
14-01-2009,03:00,23,R,ugm-3,40,R,ugm-3,74,R,ugm-3,6,R,ugm-3,,,
14-01-2009,04:00,23,R,ugm-3,42,R,ugm-3,76,R,ugm-3,4,R,ugm-3,,,
14-01-2009,05:00,14,R,ugm-3,40,R,ugm-3,61,R,ugm-3,6,R,ugm-3,,,
14-01-2009,06:00,3,R,ugm-3,29,R,ugm-3,32,R,ugm-3,26,R,ugm-3,,,
14-01-2009,07:00,11,R,ugm-3,44,R,ugm-3,61,R,ugm-3,12,R,ugm-3,,,
14-01-2009,08:00,90,R,ugm-3,73,R,ugm-3,210,R,ugm-3,4,R,ugm-3,,,
14-01-2009,09:00,215,R,ugm-3,101,R,ugm-3,430,R,ugm-3,4,R,ugm-3,,,
14-01-2009,10:00,195,R,ugm-3,101,R,ugm-3,399,R,ugm-3,6,R,ugm-3,,,
14-01-2009,11:00,36,R,ugm-3,57,R,ugm-3,113,R,ugm-3,24,R,ugm-3,,,
14-01-2009,12:00,23,R,ugm-3,48,R,ugm-3,82,R,ugm-3,34,R,ugm-3,,,
14-01-2009,13:00,13,R,ugm-3,44,R,ugm-3,63,R,ugm-3,28,R,ugm-3,,,
14-01-2009,14:00,4,R,ugm-3,29,R,ugm-3,34,R,ugm-3,48,R,ugm-3,,,
14-01-2009,15:00,3,R,ugm-3,21,R,ugm-3,25,R,ugm-3,56,R,ugm-3,,,
14-01-2009,16:00,3,R,ugm-3,29,R,ugm-3,32,R,ugm-3,50,R,ugm-3,,,
14-01-2009,17:00,9,R,ugm-3,61,R,ugm-3,74,R,ugm-3,16,R,ugm-3,,,
14-01-2009,18:00,9,R,ugm-3,71,R,ugm-3,84,R,ugm-3,18,R,ugm-3,,,
14-01-2009,19:00,3,R,ugm-3,50,R,ugm-3,53,R,ugm-3,36,R,ugm-3,,,
14-01-2009,20:00,1,R,ugm-3,31,R,ugm-3,32,R,ugm-3,54,R,ugm-3,,,
14-01-2009,21:00,1,R,ugm-3,21,R,ugm-3,23,R,ugm-3,58,R,ugm-3,,,
14-01-2009,22:00,1,R,ugm-3,27,R,ugm-3,29,R,ugm-3,44,R,ugm-3,,,
14-01-2009,23:00,1,R,ugm-3,17,R,ugm-3,19,R,ugm-3,56,R,ugm-3,,,
14-01-2009,24:00,1,R,ugm-3,19,R,ugm-3,21,R,ugm-3,50,R,ugm-3,,,
15-01-2009,01:00,1,R,ugm-3,13,R,ugm-3,15,R,ugm-3,50,R,ugm-3,,,
15-01-2009,02:00,1,R,ugm-3,10,R,ugm-3,11,R,ugm-3,48,R,ugm-3,,,
15-01-2009,03:00,1,R,ugm-3,11,R,ugm-3,13,R,ugm-3,48,R,ugm-3,,,
15-01-2009,04:00,1,R,ugm-3,8,R,ugm-3,10,R,ugm-3,52,R,ugm-3,,,
15-01-2009,05:00,1,R,ugm-3,8,R,ugm-3,10,R,ugm-3,52,R,ugm-3,,,
15-01-2009,06:00,1,R,ugm-3,11,R,ugm-3,13,R,ugm-3,46,R,ugm-3,,,
15-01-2009,07:00,1,R,ugm-3,15,R,ugm-3,17,R,ugm-3,46,R,ugm-3,,,
15-01-2009,08:00,1,R,ugm-3,17,R,ugm-3,19,R,ugm-3,44,R,ugm-3,,,
15-01-2009,09:00,3,R,ugm-3,25,R,ugm-3,29,R,ugm-3,38,R,ugm-3,,,
15-01-2009,10:00,3,R,ugm-3,25,R,ugm-3,29,R,ugm-3,42,R,ugm-3,,,
15-01-2009,11:00,9,R,ugm-3,31,R,ugm-3,44,R,ugm-3,,,,,,
15-01-2009,12:00,11,R,ugm-3,31,R,ugm-3,48,R,ugm-3,40,R,ugm-3,,,
15-01-2009,13:00,5,R,ugm-3,27,R,ugm-3,34,R,ugm-3,44,R,ugm-3,,,
15-01-2009,14:00,4,R,ugm-3,25,R,ugm-3,31,R,ugm-3,48,R,ugm-3,,,
15-01-2009,15:00,3,R,ugm-3,23,R,ugm-3,27,R,ugm-3,50,R,ugm-3,,,
15-01-2009,16:00,3,R,ugm-3,29,R,ugm-3,32,R,ugm-3,46,R,ugm-3,,,
15-01-2009,17:00,3,R,ugm-3,29,R,ugm-3,32,R,ugm-3,44,R,ugm-3,,,
15-01-2009,18:00,3,R,ugm-3,38,R,ugm-3,42,R,ugm-3,34,R,ugm-3,,,
15-01-2009,19:00,3,R,ugm-3,36,R,ugm-3,40,R,ugm-3,34,R,ugm-3,,,
15-01-2009,20:00,3,R,ugm-3,31,R,ugm-3,34,R,ugm-3,36,R,ugm-3,,,
15-01-2009,21:00,3,R,ugm-3,42,R,ugm-3,46,R,ugm-3,22,R,ugm-3,,,
15-01-2009,22:00,1,R,ugm-3,31,R,ugm-3,32,R,ugm-3,36,R,ugm-3,,,
15-01-2009,23:00,1,R,ugm-3,21,R,ugm-3,23,R,ugm-3,42,R,ugm-3,,,
15-01-2009,24:00,1,R,ugm-3,17,R,ugm-3,19,R,ugm-3,44,R,ugm-3,,,
16-01-2009,01:00,1,R,ugm-3,19,R,ugm-3,21,R,ugm-3,38,R,ugm-3,,,
16-01-2009,02:00,1,R,ugm-3,11,R,ugm-3,13,R,ugm-3,44,R,ugm-3,,,
16-01-2009,03:00,1,R,ugm-3,13,R,ugm-3,15,R,ugm-3,44,R,ugm-3,,,
16-01-2009,04:00,1,R,ugm-3,13,R,ugm-3,15,R,ugm-3,40,R,ugm-3,,,
16-01-2009,05:00,1,R,ugm-3,15,R,ugm-3,17,R,ugm-3,38,R,ugm-3,,,
16-01-2009,06:00,1,R,ugm-3,15,R,ugm-3,17,R,ugm-3,36,R,ugm-3,,,
16-01-2009,07:00,1,R,ugm-3,17,R,ugm-3,19,R,ugm-3,34,R,ugm-3,,,
16-01-2009,08:00,3,R,ugm-3,25,R,ugm-3,29,R,ugm-3,24,R,ugm-3,,,
16-01-2009,09:00,3,R,ugm-3,25,R,ugm-3,29,R,ugm-3,14,R,ugm-3,,,
16-01-2009,10:00,,,,,,,,,,,,,,,
16-01-2009,11:00,3,R,ugm-3,21,R,ugm-3,25,R,ugm-3,42,R,ugm-3,,,
16-01-2009,12:00,3,R,ugm-3,15,R,ugm-3,19,R,ugm-3,44,R,ugm-3,,,
16-01-2009,13:00,3,R,ugm-3,15,R,ugm-3,19,R,ugm-3,44,R,ugm-3,,,